Location: Home
(42.5358°N, 72.7383°W)
Time: 06:55:30
(UTC-05:00)

Explorer 11/Cluster Stage 4 - Pass Details

Date: 07 December 2021
Orbit: 467 x 1255 km, 28.8° (Epoch: 25 January)

Event Time Altitude Azimuth Distance (km) Brightness Sun altitude
Rises 04:40:00 0° 254° (WSW) 3,683 - -26.3°
Reaches altitude 10° 04:43:28 10° 236° (SW) 2,874 - -25.7°
Exits shadow 04:46:17 17° 213° (SSW) 2,504 8.9 -25.2°
Maximum altitude 04:48:02 18° 196° (SSW) 2,469 9.0 -24.9°
Drops below altitude 10° 04:53:00 10° 157° (SSE) 3,144 10.0 -24.0°
Sets 04:57:03 0° 141° (SE) 4,166 11.0 -23.2°
